Time,TemperatureF,DewpointF,PressureIn,WindDirection,WindDirectionDegrees,WindSpeedMPH,WindSpeedGustMPH,Humidity,HourlyPrecipIn,Conditions,Clouds,dailyrainin,SolarRadiationWatts/m^2,SoftwareType,DateUTC
2017-02-21 00:03:00,43.4,41.8,29.92,SE,136,16.1,16.1,94,0.01,RA,SCT,0.00,0.0,WeatherDisplay:10.37,2017-02-21 08:03:00,
2017-02-21 00:08:00,43.5,41.6,29.92,SSE,157,19.6,19.6,93,0.01,RA,SCT,0.00,0.0,WeatherDisplay:10.37,2017-02-21 08:08:00,
2017-02-21 00:13:00,43.6,42.0,29.92,SE,135,4.0,4.0,94,0.01,OVC,SCT,0.00,0.0,WeatherDisplay:10.37,2017-02-21 08:13:00,
2017-02-21 00:18:00,43.4,41.8,29.93,SSE,167,6.0,6.0,94,0.00,OVC,SCT,0.00,0.0,WeatherDisplay:10.37,2017-02-21 08:18:00,
2017-02-21 00:23:00,43.6,42.0,29.91,WNW,293,9.2,9.2,94,0.00,OVC,SCT,0.00,0.0,WeatherDisplay:10.37,2017-02-21 08:23:00,
2017-02-21 00:28:00,43.6,42.0,29.93,East,90,8.1,8.1,94,0.00,OVC,SCT,0.00,0.0,WeatherDisplay:10.37,2017-02-21 08:28:00,
2017-02-21 00:33:00,43.6,42.3,29.92,SE,145,12.0,12.0,95,0.00,OVC,SCT,0.00,0.0,WeatherDisplay:10.37,2017-02-21 08:33:00,
2017-02-21 00:38:00,43.7,41.8,29.93,WNW,288,24.2,24.2,93,0.00,OVC,SCT,0.00,0.0,WeatherDisplay:10.37,2017-02-21 08:38:00,
2017-02-21 00:43:00,43.8,41.9,29.94,NE,55,10.4,10.4,93,0.00,OVC,SCT,0.00,0.0,WeatherDisplay:10.37,2017-02-21 08:43:00,
2017-02-21 00:48:00,43.6,42.0,29.94,ESE,110,13.0,13.0,94,0.00,OVC,SCT,0.00,0.0,WeatherDisplay:10.37,2017-02-21 08:48:00,
2017-02-21 00:53:00,43.6,42.0,29.94,West,272,11.5,11.5,94,0.01,RA,SCT,0.01,0.0,WeatherDisplay:10.37,2017-02-21 08:53:00,
2017-02-21 00:58:00,43.6,42.0,29.95,NW,317,15.0,15.0,94,0.01,RA,SCT,0.01,0.0,WeatherDisplay:10.37,2017-02-21 08:58:00,
2017-02-21 01:03:00,43.5,41.9,29.93,South,186,10.4,10.4,94,0.01,OVC,SCT,0.01,0.0,WeatherDisplay:10.37,2017-02-21 09:03:00,
2017-02-21 01:08:00,43.4,41.8,29.93,East,101,5.8,5.8,94,0.04,RA,SCT,0.05,0.0,WeatherDisplay:10.37,2017-02-21 09:08:00,
2017-02-21 01:13:00,43.1,41.5,29.93,SSW,194,18.4,18.4,94,0.05,RA,SCT,0.05,0.0,WeatherDisplay:10.37,2017-02-21 09:13:00,
2017-02-21 01:18:00,43.2,41.9,29.95,NE,46,11.5,11.5,95,0.08,RA,SCT,0.08,0.0,WeatherDisplay:10.37,2017-02-21 09:18:00,
2017-02-21 01:23:00,43.2,41.9,29.94,ESE,119,11.5,11.5,95,0.09,RA,SCT,0.09,0.0,WeatherDisplay:10.37,2017-02-21 09:23:00,
2017-02-21 01:28:00,43.1,41.8,29.94,East,92,3.5,3.5,95,0.11,RA,SCT,0.12,0.0,WeatherDisplay:10.37,2017-02-21 09:28:00,
2017-02-21 01:33:00,43.0,41.7,29.94,ESE,108,3.5,3.5,95,0.14,RA,SCT,0.14,0.0,WeatherDisplay:10.37,2017-02-21 09:33:00,
2017-02-21 01:38:00,42.9,41.8,29.93,SSE,155,5.8,5.8,96,0.18,RA,SCT,0.18,0.0,WeatherDisplay:10.37,2017-02-21 09:38:00,
2017-02-21 01:43:00,43.0,41.9,29.93,West,265,9.2,9.2,96,0.19,RA,SCT,0.19,0.0,WeatherDisplay:10.37,2017-02-21 09:43:00,
2017-02-21 01:48:00,43.1,42.0,29.94,WNW,299,10.4,10.4,96,0.21,RA,SCT,0.21,0.0,WeatherDisplay:10.37,2017-02-21 09:48:00,
2017-02-21 01:53:00,43.1,42.0,29.95,ESE,121,11.5,11.5,96,0.20,RA,SCT,0.21,0.0,WeatherDisplay:10.37,2017-02-21 09:53:00,
2017-02-21 01:58:00,43.0,41.7,29.93,SSW,196,10.4,10.4,95,0.20,OVC,SCT,0.22,0.0,WeatherDisplay:10.37,2017-02-21 09:58:00,
2017-02-21 02:03:00,42.8,41.7,29.93,ESE,109,4.6,4.6,96,0.22,RA,SCT,0.23,0.0,WeatherDisplay:10.37,2017-02-21 10:03:00,
2017-02-21 02:08:00,42.8,41.7,29.93,NW,313,6.9,6.9,96,0.22,RA,SCT,0.26,0.0,WeatherDisplay:10.37,2017-02-21 10:08:00,
2017-02-21 02:13:00,42.7,41.6,29.94,ESE,109,10.4,10.4,96,0.24,RA,SCT,0.31,0.0,WeatherDisplay:10.37,2017-02-21 10:13:00,
2017-02-21 02:18:00,42.7,41.6,29.93,ESE,119,9.2,9.2,96,0.25,RA,SCT,0.34,0.0,WeatherDisplay:10.37,2017-02-21 10:18:00,
2017-02-21 02:24:00,42.8,41.7,29.95,East,94,11.5,11.5,96,0.29,RA,SCT,0.38,0.0,WeatherDisplay:10.37,2017-02-21 10:24:00,
2017-02-21 02:29:00,42.8,41.7,29.95,SSW,213,6.9,6.9,96,0.31,RA,SCT,0.42,0.0,WeatherDisplay:10.37,2017-02-21 10:29:00,
2017-02-21 02:34:00,42.7,41.6,29.95,NNW,342,9.2,9.2,96,0.28,RA,SCT,0.42,0.0,WeatherDisplay:10.37,2017-02-21 10:34:00,
2017-02-21 02:39:00,42.5,41.4,29.96,NW,325,6.9,6.9,96,0.24,OVC,SCT,0.43,0.0,WeatherDisplay:10.37,2017-02-21 10:39:00,
2017-02-21 02:44:00,42.5,41.4,29.96,NNW,340,13.0,13.0,96,0.24,RA,SCT,0.43,0.0,WeatherDisplay:10.37,2017-02-21 10:44:00,
2017-02-21 02:49:00,42.4,41.3,29.96,WNW,291,6.9,6.9,96,0.22,RA,SCT,0.43,0.0,WeatherDisplay:10.37,2017-02-21 10:49:00,
2017-02-21 02:54:00,42.3,41.2,29.96,East,90,9.2,9.2,96,0.22,OVC,SCT,0.43,0.0,WeatherDisplay:10.37,2017-02-21 10:54:00,
2017-02-21 02:59:00,42.3,41.2,29.96,ESE,102,10.4,10.4,96,0.21,OVC,SCT,0.43,0.0,WeatherDisplay:10.37,2017-02-21 10:59:00,
2017-02-21 03:04:00,42.2,41.1,29.95,NW,306,9.2,9.2,96,0.20,OVC,SCT,0.43,0.0,WeatherDisplay:10.37,2017-02-21 11:04:00,
2017-02-21 03:09:00,42.1,41.0,29.96,NW,313,11.5,11.5,96,0.17,OVC,SCT,0.43,0.0,WeatherDisplay:10.37,2017-02-21 11:09:00,
2017-02-21 03:14:00,42.0,40.9,29.97,SSW,212,5.8,5.8,96,0.12,OVC,SCT,0.43,0.0,WeatherDisplay:10.37,2017-02-21 11:14:00,
2017-02-21 03:19:00,42.0,40.9,29.97,NW,305,2.3,2.3,96,0.09,OVC,SCT,0.43,0.0,WeatherDisplay:10.37,2017-02-21 11:19:00,
2017-02-21 03:24:00,41.9,41.1,29.97,NNE,26,5.8,5.8,97,0.05,OVC,SCT,0.43,0.0,WeatherDisplay:10.37,2017-02-21 11:24:00,
2017-02-21 03:29:00,41.8,41.0,29.98,East,83,11.5,11.5,97,0.01,OVC,SCT,0.43,0.0,WeatherDisplay:10.37,2017-02-21 11:29:00,
2017-02-21 03:34:00,41.8,41.0,29.98,ESE,106,3.5,3.5,97,0.01,OVC,SCT,0.43,0.0,WeatherDisplay:10.37,2017-02-21 11:34:00,
2017-02-21 03:39:00,41.7,40.9,29.98,SE,138,11.5,11.5,97,0.00,OVC,SCT,0.43,0.0,WeatherDisplay:10.37,2017-02-21 11:39:00,
2017-02-21 03:44:00,41.6,40.5,29.98,SSE,168,10.4,10.4,96,0.00,OVC,SCT,0.43,0.0,WeatherDisplay:10.37,2017-02-21 11:44:00,
2017-02-21 03:49:00,41.5,40.4,29.98,SSW,207,6.9,6.9,96,0.00,OVC,SCT,0.43,0.0,WeatherDisplay:10.37,2017-02-21 11:49:00,
2017-02-21 03:54:00,41.5,40.4,29.97,East,96,18.0,18.0,96,0.00,OVC,SCT,0.43,0.0,WeatherDisplay:10.37,2017-02-21 11:54:00,
2017-02-21 03:59:00,41.4,40.3,29.97,WNW,284,6.9,6.9,96,0.00,OVC,SCT,0.43,0.0,WeatherDisplay:10.37,2017-02-21 11:59:00,
2017-02-21 04:04:00,41.4,40.3,29.97,ENE,66,3.5,3.5,96,0.00,OVC,SCT,0.43,0.0,WeatherDisplay:10.37,2017-02-21 12:04:00,